Location: *
(43.4667°N, 11.6833°E)
Time: 22:26:22
(UTC+00:00)

CZ-4 R/B - Pass Details

Date: 19 July 2019
Orbit: 682 x 752 km, 98.5° (Epoch: 25 August)

Event Time Altitude Azimuth Distance (km) Brightness Sun altitude
Rises 22:48:10 0° 16° (NNE) 3,066 8.2 -25.4°
Reaches altitude 10° 22:50:25 10° 20° (NNE) 2,152 7.1 -25.4°
Enters shadow 22:54:50 63° 82° (E) 783 3.9 -25.5°
